Notices

What's New in latest Release from April 7th, 2021:

- Updated Glossary, including Speed of Maximum Gust, and Total Hourly Precipitation

- Updated national and regional climate services offices contacts and prices information

- Addition of station inventory lists for 1981-2010, 1971-2000, and 1961-1990 Normals.

If you haven't already, please take our survey and provide feedback about our website: https://eccc.sondage-survey.ca/f/LanguageSelection.aspx?s=442ca660-fcf1-47c0-95a9-59707d6fd709

Hourly Data Report for September 04, 2004

SHERBROOKE A
QUEBEC

45°26'00.000" N
71°41'00.000" W
241.40 m
7028124
71610
YSC

Download Data

Hourly Data (September 2004)
Hourly Data Report for September 4, 2004
TIME
LST
Temp Definition
°C
Dew Point Definition
°C
Rel Hum Definition
%
Precip. Amount Definition
mm

Wind Dir Definition
10's deg

Wind Spd Definition
km/h
Visibility Definition
km
Stn Press Definition
kPa
Hmdx Definition


Wind Chill Definition


Weather Definition


00:00 18.7 15.7 83   26 19 15.0 98.78     Rain
01:00 18.2 15.5 84   24 11 15.0 98.78      
02:00 18.6 15.5 82   27 22 15.0 98.81      
03:00 18.1 15.3 84   29 15 15.0 98.85      
04:00 17.1 14.8 86   31 15 15.0 98.92      
05:00 16.3 14.2 87   31 11 15.0 99.02      
06:00 14.7 12.7 88   33 15 15.0 99.17      
07:00 14.6 11.7 83   5 9 24.1 99.29     Mostly Cloudy
08:00 15.6 11.9 79   4 6 24.1 99.30     Mostly Cloudy
09:00 15.9 11.7 76   3 11 24.1 99.35     Mostly Cloudy
10:00 17.3 11.0 66   2 9 24.1 99.38     Mostly Cloudy
11:00 17.7 10.0 61   4 11 24.1 99.38     Mostly Cloudy
12:00 18.6 11.3 62   6 9 24.1 99.42     Mostly Cloudy
13:00 17.6 8.5 55   3 13 24.1 99.43     Mostly Cloudy
14:00 18.6 8.8 53   36 9 24.1 99.45     Mostly Cloudy
15:00 17.4 8.6 56   3 11 24.1 99.51     Mostly Cloudy
16:00 17.4 8.7 57   6 9 24.1 99.54     Mostly Cloudy
17:00 16.0 8.5 61   4 7 15.0 99.58      
18:00 14.7 8.6 67   3 7 15.0 99.62      
19:00 12.8 8.4 75   5 9 15.0 99.66      
20:00 11.6 8.4 81   4 9 15.0 99.70      
21:00 9.6 7.9 89   11 9 15.0 99.74      
22:00 10.0 8.0 87   9 11 15.0 99.78      
23:00 9.3 7.6 89   7 11 15.0 99.77      

Notes on Data Quality.

Legend

  • E = Estimated
  • M = Missing
  • NA = Not Available*
  • [empty] = Indicates an unobserved value
Date modified: